ATLAS 5 CENTAUR DEB, 46656

Orbit data source: Space-Track

ATLAS 5 CENTAUR DEB, 46656 is space debris in HEO originally from a launch on Wed, 17 Oct 2018 UTC launched from the Air Force Eastern Test Range (AFETR). Debris objects in space refer to the collection of defunct objects orbiting the Earth. Examples of debris include non-operational satellites, rocket bodies, and fragments generated from explosions, collisions, or faulty payload assembly.

Loading next visibility...
Identifier
46656, 2018-079CJ
Orbit
HEO
Country
Flag of USUS
Related business
Flag of USUnited Launch Alliance/Lockheed Martin (US)
Manufacturer
ULA Decatur
Mission
Spacecraft
Bus & Motor
Unknown
Mass
Unknown
Launch date (UTC)
2018-10-17 (8 years ago)
Launch vehicle
Unknown
Launch site
Air Force Eastern Test Range (AFETR)
Object type
Payload
Rocket body
Debris
Shape & HBR
Unknown shape, 1.1 m
Radar Cross Section
RCS unknown

Expand to show TLE details & history
Last TLE update: 3 days ago

TLE from 3 days ago
0 ATLAS 5 CENTAUR DEB
1 46656U 18079CJ  26235.20190476 -.00000102  00000-0  00000-0 0  9993
2 46656  13.5582 353.3393 4543680  41.3036 345.3272  1.96958652 42271
Epoch: 2026-08-23T04:50Z
TLE epoch observation values (Epoch: 2026-08-23T04:50:44.571Z)
Latitude
0.00005°
Longitude
-50.81965°
Altitude
9,540.247 km
Speed
5.937 km/s
True Right ascension
23h 33m 28s
True Declination
0° 00' 00"
Sunlit
Object was in daylight at epoch
Visualization orbit readout
Latitude
Unknown
Longitude
Unknown
Altitude
Unknown
Speed
Unknown
Apparent Right ascension
Unknown
Apparent Declination
Unknown
Sunlit
N/A
Visualization observer readout
Local Sidereal Time
09:24:54
Azimuth
Unknown
Elevation
Unknown
Doppler factor
Unknown
Orbital elements
Apogee altitude
32,723.421 km
Perigee altitude
8,291.507 km
Semi-major axis
26,885.601 km
Eccentricity
0.45437
Inclination
13.5582°
RAAN
353.3393°
Arg. of periapsis
41.3036°
True anomaly
318.4786°
Mean anomaly
345.3272°
Eccentric anomaly
333.85626°
Mean motion
0.49234 °/min
Orbital period
731.2 mins
BSTAR
0
Loading maneuver chart data...
Computing Atmospheric mass density...

Documentation

Showing up to 5 results
|